Tri-Cities, TN

7:14 PM EDT on April 24, 2018 (GMT -0400)
Tri-Cities Regional Tennessee / Virginia

Weather History for KTRI - February, 2013

Change the Weather History Date:

Saturday, February 9, 2013

  Actual Average Record
Temperature  
Mean Temperature 38 °F 38 °F  
Max Temperature 50 °F 48 °F 70 °F (1957)
Min Temperature 25 °F 27 °F 1 °F (1995)
Degree Days  
Heating Degree Days 27 27  
Month to date heating degree days 265 253  
Since 1 July heating degree days 2703 2907  
Cooling Degree Days 0 0  
Month to date cooling degree days 0 0  
Year to date cooling degree days 0 0  
Moisture  
Dew Point 21 °F    
Average Humidity 55    
Maximum Humidity 81    
Minimum Humidity 29    
Precipitation  
Precipitation 0.00 in 0.12 in 2.48 in (1994)
Month to date precipitation 0.39 1.12  
Year to date precipitation 10.38 4.49  
Snow  
Snow 0.00 in 0.10 in - ()
Month to date snowfall 3.1 1.2  
Since 1 July snowfall 7.2 8.6  
Snow Depth 0.00 in    
Sea Level Pressure  
Sea Level Pressure 30.29 in    
Wind  
Wind Speed 3 mph (NW)    
Max Wind Speed 10 mph    
Max Gust Speed 12 mph    
Visibility 10 miles    
Events      
T = Trace of Precipitation, MM = Missing Value Source: NWS Daily Summary

Daily Weather History Graph

Daily Weather History Graph

Search for Another Location

Airport or City:

Astronomy

Feb. 09, 2013 Rise Set
Actual Time 7:23 AM EST 6:04 PM EST
Civil Twilight 6:56 AM EST 6:31 PM EST
Nautical Twilight 6:26 AM EST 7:01 PM EST
Astronomical Twilight 5:56 AM EST 7:31 PM EST
Moon 6:34 AM EST (2/9) 5:44 PM EST (2/9)
Length of Visible Light 11h 34m
Length of Day
10h 40m
Waning Crescent, 0% of the Moon is Illuminated
Feb 9
Waning Crescent
Feb 10
New
Feb 17
First Quarter
Feb 25
Full
Mar 4
Last Quarter

Hourly Weather History & Observations

Time (EST) Temp. Windchill Dew Point Humidity Pressure Visibility Wind Dir Wind Speed Gust Speed Precip Events Conditions
12:53 AM 35.1 °F 27.9 °F 25.0 °F 67% 30.23 in 10.0 mi NW 9.2 mph - N/A   Overcast
1:53 AM 32.0 °F 28.7 °F 24.1 °F 73% 30.22 in 10.0 mi North 3.5 mph - N/A   Mostly Cloudy
2:53 AM 32.0 °F 25.6 °F 23.0 °F 69% 30.24 in 10.0 mi NW 6.9 mph - N/A   Scattered Clouds
3:53 AM 28.9 °F - 21.9 °F 75% 30.24 in 10.0 mi Calm Calm - N/A   Scattered Clouds
4:53 AM 28.0 °F 21.7 °F 21.0 °F 75% 30.26 in 10.0 mi West 5.8 mph - N/A   Scattered Clouds
5:33 AM 28.9 °F 22.8 °F 21.9 °F 75% 30.28 in 10.0 mi WNW 5.8 mph - N/A   Mostly Cloudy
5:53 AM 28.0 °F 22.8 °F 21.0 °F 75% 30.29 in 10.0 mi WNW 4.6 mph - N/A   Scattered Clouds
6:17 AM 27.0 °F - 21.0 °F 78% 30.30 in 10.0 mi Calm Calm - N/A   Mostly Cloudy
6:53 AM 27.0 °F 21.6 °F 21.9 °F 81% 30.31 in 10.0 mi NNW 4.6 mph - N/A   Mostly Cloudy
7:18 AM 26.1 °F 19.4 °F 21.0 °F 81% 30.31 in 10.0 mi NNW 5.8 mph - N/A   Partly Cloudy
7:53 AM 27.0 °F - 21.0 °F 78% 30.33 in 10.0 mi Calm Calm - N/A   Partly Cloudy
8:53 AM 32.0 °F - 23.0 °F 69% 30.35 in 10.0 mi Calm Calm - N/A   Clear
9:53 AM 35.1 °F 32.2 °F 21.9 °F 59% 30.34 in 10.0 mi Variable 3.5 mph - N/A   Clear
10:53 AM 37.0 °F 34.5 °F 21.0 °F 52% 30.35 in 10.0 mi WNW 3.5 mph - N/A   Clear
11:53 AM 39.0 °F 34.8 °F 21.0 °F 49% 30.33 in 10.0 mi SE 5.8 mph - N/A   Clear
12:53 PM 42.1 °F - 19.9 °F 41% 30.31 in 10.0 mi Calm Calm - N/A   Clear
1:53 PM 44.1 °F 41.5 °F 18.0 °F 35% 30.30 in 10.0 mi NW 4.6 mph - N/A   Clear
2:53 PM 45.0 °F 43.5 °F 17.1 °F 33% 30.28 in 10.0 mi SW 3.5 mph - N/A   Partly Cloudy
3:53 PM 48.9 °F - 17.1 °F 28% 30.27 in 10.0 mi Calm Calm - N/A   Partly Cloudy
4:53 PM 48.9 °F - 19.0 °F 31% 30.27 in 10.0 mi NNE 4.6 mph - N/A   Partly Cloudy
5:53 PM 44.1 °F - 19.0 °F 37% 30.27 in 10.0 mi Calm Calm - N/A   Partly Cloudy
6:53 PM 36.0 °F - 23.0 °F 59% 30.28 in 10.0 mi Calm Calm - N/A   Partly Cloudy
7:53 PM 35.1 °F - 23.0 °F 61% 30.29 in 10.0 mi Calm Calm - N/A   Partly Cloudy
8:53 PM 30.9 °F - 23.0 °F 72% 30.28 in 10.0 mi Calm Calm - N/A   Partly Cloudy
9:53 PM 33.1 °F - 21.9 °F 64% 30.27 in 10.0 mi Calm Calm - N/A   Partly Cloudy
10:53 PM 28.0 °F - 21.0 °F 75% 30.27 in 10.0 mi Calm Calm - N/A   Clear
11:53 PM 28.0 °F - 21.9 °F 78% 30.25 in 10.0 mi Calm Calm - N/A   Clear